Location: Santa Maria di Sala
(45.5070°N, 12.0300°E)
Time: 06:23:30
(UTC+01:00)

Envisat - Visible Passes

Search period start: 28 January 2022 00:00
Search period end: 07 February 2022 00:00
Orbit: 764 x 766 km, 98.2° (Epoch: 27 January)

Date Brightness Start Highest point End Pass type
(mag) Time Alt. Az. Time Alt. Az. Time Alt. Az.
28 Jan 5.2 04:07:29 10° NE 04:11:29 23° E 04:15:27 10° SE visible
28 Jan 3.1 05:45:51 10° N 05:50:44 48° WNW 05:55:36 10° SW visible
29 Jan 6.0 03:33:30 10° ENE 03:34:08 10° E 03:34:47 10° E visible
29 Jan 3.0 05:08:50 10° NNE 05:13:57 81° ESE 05:19:02 10° SSW visible
29 Jan 4.5 06:49:24 10° NNW 06:52:18 15° WNW 06:55:13 10° W visible
30 Jan 4.3 04:32:13 10° NNE 04:36:58 38° E 04:41:40 10° SSE visible
30 Jan 3.7 06:11:29 10° N 06:15:51 30° WNW 06:20:12 10° SW visible
31 Jan 5.5 03:56:18 10° NE 03:59:46 18° E 04:03:12 10° SE visible
31 Jan 2.9 05:34:11 10° N 05:39:12 61° WNW 05:44:11 10° SSW visible
01 Feb 3.3 04:57:16 10° NNE 05:02:20 65° ESE 05:07:22 10° S visible
01 Feb 4.3 06:37:22 10° NNW 06:40:51 19° WNW 06:44:20 10° WSW visible
02 Feb 4.7 04:20:49 10° NNE 04:25:17 30° E 04:29:44 10° SSE visible
02 Feb 3.5 05:59:42 10° N 06:04:21 37° WNW 06:08:58 10° SW visible
03 Feb 5.7 03:45:19 10° NE 03:48:02 14° E 03:50:44 10° ESE visible
03 Feb 2.8 05:22:31 10° N 05:27:37 76° WNW 05:32:40 10° SSW visible
04 Feb 3.7 04:45:44 10° NNE 04:50:42 51° E 04:55:38 10° S visible
04 Feb 4.1 06:25:27 10° NNW 06:29:23 23° WNW 06:33:18 10° WSW visible
05 Feb 5.1 04:09:28 10° NE 04:13:36 24° E 04:17:41 10° SSE visible
05 Feb 3.2 05:47:58 10° N 05:52:49 45° WNW 05:57:37 10° SW visible
06 Feb 6.0 03:34:49 10° ENE 03:36:15 11° E 03:37:42 10° ESE visible
06 Feb 2.9 05:10:54 10° NNE 05:16:02 86° ESE 05:21:07 10° SSW visible
06 Feb 4.6 06:51:38 10° NNW 06:54:20 15° WNW 06:57:02 10° W visible
